Time,TemperatureF,DewpointF,PressureIn,WindDirection,WindDirectionDegrees,WindSpeedMPH,WindSpeedGustMPH,Humidity,HourlyPrecipIn,Conditions,Clouds,dailyrainin,SoftwareType,DateUTC
2013-05-27 00:00:00,54.5,50.0,29.97,SSW,202,1.4,3.3,84,0.00,,,0.00,Rainwise IP-100,2013-05-27 07:00:00,
2013-05-27 00:05:00,54.5,50.0,29.97,SSW,202,1.9,3.0,84,0.00,,,0.00,Rainwise IP-100,2013-05-27 07:05:00,
2013-05-27 00:10:00,54.5,50.0,29.97,SW,225,2.1,2.8,84,0.00,,,0.00,Rainwise IP-100,2013-05-27 07:10:00,
2013-05-27 00:15:00,54.4,50.0,29.97,SSW,202,1.4,2.8,84,0.00,,,0.00,Rainwise IP-100,2013-05-27 07:15:00,
2013-05-27 00:20:00,54.4,50.0,29.96,SW,225,2.1,3.5,83,0.00,,,0.00,Rainwise IP-100,2013-05-27 07:20:00,
2013-05-27 00:25:00,54.5,50.0,29.96,SW,225,1.9,4.2,83,0.00,,,0.00,Rainwise IP-100,2013-05-27 07:25:00,
2013-05-27 00:30:00,54.5,50.0,29.97,SW,225,1.6,5.1,83,0.00,,,0.00,Rainwise IP-100,2013-05-27 07:30:00,
2013-05-27 00:35:00,54.5,50.0,29.97,South,180,0.0,3.5,83,0.00,,,0.00,Rainwise IP-100,2013-05-27 07:35:00,
2013-05-27 00:40:00,54.5,50.0,29.97,SW,225,1.4,3.0,83,0.00,,,0.00,Rainwise IP-100,2013-05-27 07:40:00,
2013-05-27 00:45:00,54.4,50.0,29.96,SW,225,0.0,3.0,83,0.00,,,0.00,Rainwise IP-100,2013-05-27 07:45:00,
2013-05-27 00:50:00,54.3,50.0,29.96,WSW,247,1.9,2.8,83,0.00,,,0.00,Rainwise IP-100,2013-05-27 07:50:00,
2013-05-27 00:55:00,54.3,50.0,29.96,SW,225,0.0,3.3,83,0.00,,,0.00,Rainwise IP-100,2013-05-27 07:55:00,
2013-05-27 01:00:00,54.2,49.0,29.96,SW,225,0.0,2.6,84,0.00,,,0.00,Rainwise IP-100,2013-05-27 08:00:00,
2013-05-27 01:05:00,54.2,49.0,29.96,SSW,202,1.2,3.0,84,0.00,,,0.00,Rainwise IP-100,2013-05-27 08:05:00,
2013-05-27 01:10:00,54.1,49.0,29.96,SSW,202,1.9,4.0,84,0.00,,,0.00,Rainwise IP-100,2013-05-27 08:10:00,
2013-05-27 01:15:00,54.1,49.0,29.95,SW,225,1.4,4.2,84,0.00,,,0.00,Rainwise IP-100,2013-05-27 08:15:00,
2013-05-27 01:20:00,54.1,49.0,29.96,SW,225,1.9,2.6,84,0.00,,,0.00,Rainwise IP-100,2013-05-27 08:20:00,
2013-05-27 01:25:00,54.1,50.0,29.95,SW,225,0.0,3.0,85,0.00,,,0.00,Rainwise IP-100,2013-05-27 08:25:00,
2013-05-27 01:30:00,54.1,50.0,29.95,SSW,202,1.4,1.9,85,0.00,,,0.00,Rainwise IP-100,2013-05-27 08:30:00,
2013-05-27 01:35:00,53.9,50.0,29.95,SW,225,0.0,2.1,86,0.00,,,0.00,Rainwise IP-100,2013-05-27 08:35:00,
2013-05-27 01:40:00,53.8,50.0,29.95,SW,225,0.0,1.4,86,0.00,,,0.00,Rainwise IP-100,2013-05-27 08:40:00,
2013-05-27 01:45:00,53.6,50.0,29.95,SSW,202,0.0,1.4,87,0.00,,,0.00,Rainwise IP-100,2013-05-27 08:45:00,
2013-05-27 01:50:00,53.6,50.0,29.95,SSW,202,0.0,0.0,88,0.00,,,0.00,Rainwise IP-100,2013-05-27 08:50:00,
2013-05-27 01:55:00,53.5,50.0,29.95,SSW,202,0.0,2.1,88,0.00,,,0.00,Rainwise IP-100,2013-05-27 08:55:00,
2013-05-27 02:00:00,53.5,50.0,29.95,SSW,202,0.0,0.0,88,0.00,,,0.00,Rainwise IP-100,2013-05-27 09:00:00,
2013-05-27 02:05:00,53.4,50.0,29.95,SSW,202,0.0,2.1,88,0.00,,,0.00,Rainwise IP-100,2013-05-27 09:05:00,
2013-05-27 02:10:00,53.3,50.0,29.95,SSW,202,0.0,0.0,88,0.00,,,0.00,Rainwise IP-100,2013-05-27 09:10:00,
2013-05-27 02:15:00,53.3,50.0,29.95,SSW,202,0.0,1.6,88,0.00,,,0.00,Rainwise IP-100,2013-05-27 09:15:00,
2013-05-27 02:20:00,53.3,50.0,29.94,SSW,202,0.0,1.9,88,0.00,,,0.00,Rainwise IP-100,2013-05-27 09:20:00,
2013-05-27 02:25:00,53.4,50.0,29.94,SSW,202,0.0,0.0,88,0.00,,,0.00,Rainwise IP-100,2013-05-27 09:25:00,
2013-05-27 02:30:00,53.3,50.0,29.94,SSW,202,0.0,1.6,88,0.00,,,0.00,Rainwise IP-100,2013-05-27 09:30:00,
2013-05-27 02:35:00,53.3,50.0,29.93,SSW,202,0.0,0.0,88,0.00,,,0.00,Rainwise IP-100,2013-05-27 09:35:00,
2013-05-27 02:40:00,53.1,50.0,29.94,SSW,202,0.0,0.0,89,0.00,,,0.00,Rainwise IP-100,2013-05-27 09:40:00,
2013-05-27 02:45:00,52.9,50.0,29.94,SSW,202,0.0,0.0,89,0.00,,,0.00,Rainwise IP-100,2013-05-27 09:45:00,
2013-05-27 02:50:00,52.8,50.0,29.93,SSW,202,0.0,0.0,90,0.00,,,0.00,Rainwise IP-100,2013-05-27 09:50:00,
2013-05-27 02:55:00,52.6,50.0,29.92,SSW,202,0.0,0.0,90,0.00,,,0.00,Rainwise IP-100,2013-05-27 09:55:00,
2013-05-27 03:00:00,52.5,50.0,29.93,SSW,202,0.0,0.0,90,0.00,,,0.00,Rainwise IP-100,2013-05-27 10:00:00,
2013-05-27 03:05:00,52.4,49.0,29.92,SSW,202,0.0,0.0,91,0.00,,,0.00,Rainwise IP-100,2013-05-27 10:05:00,
2013-05-27 03:10:00,52.4,50.0,29.92,SSW,202,0.0,0.0,92,0.00,,,0.00,Rainwise IP-100,2013-05-27 10:10:00,
2013-05-27 03:15:00,52.3,50.0,29.92,SSW,202,0.0,0.0,92,0.00,,,0.00,Rainwise IP-100,2013-05-27 10:15:00,
2013-05-27 03:20:00,52.3,50.0,29.92,SSW,202,0.0,0.0,92,0.00,,,0.00,Rainwise IP-100,2013-05-27 10:20:00,
2013-05-27 03:25:00,52.3,50.0,29.92,SSW,202,0.0,0.0,92,0.00,,,0.00,Rainwise IP-100,2013-05-27 10:25:00,
2013-05-27 03:30:00,52.3,50.0,29.92,SSW,202,0.0,0.0,93,0.00,,,0.00,Rainwise IP-100,2013-05-27 10:30:00,
2013-05-27 03:35:00,52.4,50.5,29.91,SSW,202,0.0,0.0,94,0.00,,,0.00,Rainwise IP-100,2013-05-27 10:35:00,
2013-05-27 03:40:00,52.5,51.0,29.91,SSW,202,0.0,0.0,94,0.00,,,0.00,Rainwise IP-100,2013-05-27 10:40:00,
2013-05-27 03:45:00,52.6,50.5,29.91,SSW,202,0.0,0.0,93,0.00,,,0.00,Rainwise IP-100,2013-05-27 10:45:00,
2013-05-27 03:50:00,52.7,50.5,29.90,SSW,202,0.0,0.0,93,0.00,,,0.00,Rainwise IP-100,2013-05-27 10:50:00,
2013-05-27 03:55:00,52.7,50.5,29.90,SSW,202,0.0,0.0,93,0.00,,,0.00,Rainwise IP-100,2013-05-27 10:55:00,
2013-05-27 04:00:00,52.7,50.5,29.90,SSW,202,0.0,0.0,93,0.00,,,0.00,Rainwise IP-100,2013-05-27 11:00:00,
2013-05-27 04:05:00,52.7,50.5,29.90,SSW,202,0.0,0.0,93,0.00,,,0.00,Rainwise IP-100,2013-05-27 11:05:00,
2013-05-27 04:10:00,52.6,50.5,29.89,SSW,202,0.0,0.0,92,0.00,,,0.00,Rainwise IP-100,2013-05-27 11:10:00,
2013-05-27 04:15:00,52.5,50.5,29.89,SSW,202,0.0,0.0,92,0.00,,,0.00,Rainwise IP-100,2013-05-27 11:15:00,
2013-05-27 04:20:00,52.5,50.5,29.89,SSW,202,0.0,0.0,92,0.00,,,0.00,Rainwise IP-100,2013-05-27 11:20:00,
2013-05-27 04:25:00,52.4,50.0,29.89,SSW,202,0.0,0.0,92,0.00,,,0.00,Rainwise IP-100,2013-05-27 11:25:00,
2013-05-27 04:30:00,52.2,50.0,29.89,SSW,202,0.0,0.0,92,0.00,,,0.00,Rainwise IP-100,2013-05-27 11:30:00,
2013-05-27 04:35:00,52.1,50.0,29.88,SSW,202,0.0,0.0,92,0.00,,,0.00,Rainwise IP-100,2013-05-27 11:35:00,
2013-05-27 04:40:00,52.0,50.0,29.89,SSW,202,0.0,0.0,93,0.00,,,0.00,Rainwise IP-100,2013-05-27 11:40:00,
2013-05-27 04:45:00,51.9,50.0,29.88,SSW,202,0.0,0.0,93,0.00,,,0.00,Rainwise IP-100,2013-05-27 11:45:00,
2013-05-27 04:50:00,51.8,50.0,29.88,SSW,202,0.0,0.0,93,0.00,,,0.00,Rainwise IP-100,2013-05-27 11:50:00,
2013-05-27 04:55:00,51.8,50.0,29.87,SSW,202,0.0,0.0,93,0.00,,,0.00,Rainwise IP-100,2013-05-27 11:55:00,
2013-05-27 05:00:00,51.7,50.5,29.88,SSW,202,0.0,0.0,94,0.00,,,0.00,Rainwise IP-100,2013-05-27 12:00:00,
2013-05-27 05:05:00,51.6,50.5,29.87,SSW,202,0.0,0.0,94,0.00,,,0.00,Rainwise IP-100,2013-05-27 12:05:00,
2013-05-27 05:10:00,51.6,50.5,29.87,SSW,202,0.0,0.0,94,0.00,,,0.00,Rainwise IP-100,2013-05-27 12:10:00,
2013-05-27 05:15:00,51.5,50.5,29.86,SSW,202,0.0,0.0,95,0.00,,,0.00,Rainwise IP-100,2013-05-27 12:15:00,
2013-05-27 05:20:00,51.6,50.5,29.87,SSW,202,0.0,0.0,95,0.00,,,0.00,Rainwise IP-100,2013-05-27 12:20:00,
2013-05-27 05:25:00,51.6,50.5,29.87,SSW,202,0.0,0.0,95,0.00,,,0.00,Rainwise IP-100,2013-05-27 12:25:00,
2013-05-27 05:30:00,51.7,50.5,29.86,SSW,202,0.0,0.0,95,0.00,,,0.00,Rainwise IP-100,2013-05-27 12:30:00,
2013-05-27 05:35:00,51.8,50.5,29.86,SSW,202,0.0,0.0,95,0.00,,,0.00,Rainwise IP-100,2013-05-27 12:35:00,
2013-05-27 05:40:00,51.8,50.5,29.86,SSW,202,0.0,0.0,95,0.00,,,0.00,Rainwise IP-100,2013-05-27 12:40:00,
2013-05-27 05:45:00,51.8,50.5,29.85,SSW,202,0.0,0.0,95,0.00,,,0.00,Rainwise IP-100,2013-05-27 12:45:00,
2013-05-27 05:50:00,51.9,50.5,29.85,SSW,202,0.0,0.0,95,0.00,,,0.00,Rainwise IP-100,2013-05-27 12:50:00,
2013-05-27 05:55:00,51.9,50.5,29.85,SSW,202,0.0,0.0,95,0.00,,,0.00,Rainwise IP-100,2013-05-27 12:55:00,
2013-05-27 06:00:00,51.9,50.5,29.85,SSW,202,0.0,0.0,95,0.00,,,0.00,Rainwise IP-100,2013-05-27 13:00:00,
2013-05-27 06:05:00,51.8,50.5,29.85,SSW,202,0.0,0.0,95,0.00,,,0.00,Rainwise IP-100,2013-05-27 13:05:00,
2013-05-27 06:10:00,51.8,50.5,29.84,SSW,202,0.0,0.0,95,0.00,,,0.00,Rainwise IP-100,2013-05-27 13:10:00,
2013-05-27 06:15:00,51.9,50.5,29.84,SSW,202,0.0,0.0,95,0.00,,,0.00,Rainwise IP-100,2013-05-27 13:15:00,
2013-05-27 06:20:00,51.9,50.5,29.84,SSW,202,0.0,0.0,96,0.00,,,0.00,Rainwise IP-100,2013-05-27 13:20:00,
2013-05-27 06:25:00,52.0,50.5,29.84,SSW,202,0.0,0.0,96,0.00,,,0.00,Rainwise IP-100,2013-05-27 13:25:00,
2013-05-27 06:30:00,52.1,50.5,29.84,SSW,202,0.0,0.0,96,0.00,,,0.00,Rainwise IP-100,2013-05-27 13:30:00,
2013-05-27 06:35:00,52.2,50.5,29.84,SSW,202,0.0,0.0,96,0.00,,,0.00,Rainwise IP-100,2013-05-27 13:35:00,
2013-05-27 06:40:00,52.3,50.5,29.84,SSW,202,0.0,0.0,95,0.00,,,0.00,Rainwise IP-100,2013-05-27 13:40:00,
2013-05-27 06:45:00,52.5,51.0,29.84,SSW,202,0.0,0.0,95,0.00,,,0.00,Rainwise IP-100,2013-05-27 13:45:00,
2013-05-27 06:50:00,52.6,51.0,29.83,SSW,202,0.0,0.0,95,0.00,,,0.00,Rainwise IP-100,2013-05-27 13:50:00,
2013-05-27 06:55:00,52.7,51.0,29.83,SSW,202,0.0,0.0,95,0.00,,,0.00,Rainwise IP-100,2013-05-27 13:55:00,
2013-05-27 07:00:00,53.0,51.0,29.83,SSW,202,0.0,0.0,94,0.00,,,0.00,Rainwise IP-100,2013-05-27 14:00:00,
2013-05-27 07:05:00,53.3,52.0,29.83,SSW,202,0.0,0.0,94,0.00,,,0.00,Rainwise IP-100,2013-05-27 14:05:00,
2013-05-27 07:10:00,53.5,51.0,29.83,SSW,202,0.0,1.2,93,0.00,,,0.00,Rainwise IP-100,2013-05-27 14:10:00,
2013-05-27 07:15:00,53.6,51.0,29.82,SSW,202,0.0,0.0,93,0.00,,,0.00,Rainwise IP-100,2013-05-27 14:15:00,
2013-05-27 07:20:00,53.8,52.0,29.82,SSW,202,0.0,0.0,93,0.00,,,0.00,Rainwise IP-100,2013-05-27 14:20:00,
2013-05-27 07:25:00,54.0,52.0,29.82,SSW,202,0.0,0.0,92,0.00,,,0.00,Rainwise IP-100,2013-05-27 14:25:00,
2013-05-27 07:30:00,54.1,52.0,29.82,SSW,202,0.0,0.0,92,0.00,,,0.00,Rainwise IP-100,2013-05-27 14:30:00,
2013-05-27 07:35:00,54.3,53.0,29.82,SSW,202,0.0,0.0,92,0.00,,,0.00,Rainwise IP-100,2013-05-27 14:35:00,
2013-05-27 07:40:00,54.4,52.0,29.81,SSW,202,0.0,0.0,91,0.00,,,0.00,Rainwise IP-100,2013-05-27 14:40:00,
2013-05-27 07:45:00,54.5,52.0,29.80,SSW,202,0.0,0.0,91,0.00,,,0.00,Rainwise IP-100,2013-05-27 14:45:00,
2013-05-27 07:50:00,54.6,52.0,29.80,SSW,202,0.0,0.0,91,0.00,,,0.00,Rainwise IP-100,2013-05-27 14:50:00,
2013-05-27 07:55:00,54.6,52.0,29.80,SSW,202,0.0,1.6,91,0.00,,,0.00,Rainwise IP-100,2013-05-27 14:55:00,
2013-05-27 08:00:00,54.7,52.0,29.80,SSW,202,0.0,0.0,91,0.00,,,0.00,Rainwise IP-100,2013-05-27 15:00:00,
2013-05-27 08:05:00,54.7,52.0,29.80,SW,225,0.0,1.9,90,0.00,,,0.00,Rainwise IP-100,2013-05-27 15:05:00,
2013-05-27 08:10:00,54.7,52.0,29.80,SW,225,0.0,0.0,90,0.00,,,0.00,Rainwise IP-100,2013-05-27 15:10:00,
2013-05-27 08:15:00,54.8,53.0,29.80,SW,225,0.0,0.0,90,0.00,,,0.00,Rainwise IP-100,2013-05-27 15:15:00,
2013-05-27 08:20:00,54.9,53.0,29.79,SW,225,1.6,1.6,90,0.00,,,0.00,Rainwise IP-100,2013-05-27 15:20:00,
2013-05-27 08:25:00,54.9,53.0,29.79,SW,225,0.0,1.9,91,0.00,,,0.00,Rainwise IP-100,2013-05-27 15:25:00,
2013-05-27 08:30:00,54.9,53.0,29.79,SW,225,0.0,1.4,91,0.00,,,0.00,Rainwise IP-100,2013-05-27 15:30:00,
2013-05-27 08:35:00,54.9,53.0,29.79,SW,225,0.0,1.2,91,0.00,,,0.00,Rainwise IP-100,2013-05-27 15:35:00,
2013-05-27 08:40:00,54.9,53.0,29.79,SW,225,0.0,1.4,91,0.00,,,0.00,Rainwise IP-100,2013-05-27 15:40:00,
2013-05-27 08:45:00,55.0,53.0,29.79,SW,225,0.0,0.0,92,0.00,,,0.00,Rainwise IP-100,2013-05-27 15:45:00,
2013-05-27 08:50:00,55.0,53.0,29.78,SW,225,0.0,0.0,92,0.00,,,0.00,Rainwise IP-100,2013-05-27 15:50:00,
2013-05-27 08:55:00,54.9,53.5,29.78,SW,225,0.0,1.4,93,0.00,,,0.00,Rainwise IP-100,2013-05-27 15:55:00,
2013-05-27 09:00:00,54.8,53.5,29.78,SW,225,0.0,0.0,93,0.06,,,0.01,Rainwise IP-100,2013-05-27 16:00:00,
2013-05-27 09:05:00,54.8,53.5,29.78,SW,225,0.0,2.6,93,0.06,,,0.01,Rainwise IP-100,2013-05-27 16:05:00,
2013-05-27 09:10:00,54.6,53.0,29.78,SSW,202,0.0,2.8,93,0.00,,,0.01,Rainwise IP-100,2013-05-27 16:10:00,
2013-05-27 09:15:00,54.6,53.0,29.77,SSW,202,0.0,1.4,93,0.00,,,0.01,Rainwise IP-100,2013-05-27 16:15:00,
2013-05-27 09:20:00,54.6,53.0,29.77,SSW,202,0.0,1.4,94,0.06,,,0.02,Rainwise IP-100,2013-05-27 16:20:00,
2013-05-27 09:25:00,54.7,53.0,29.77,SSW,202,0.0,1.4,94,0.06,,,0.02,Rainwise IP-100,2013-05-27 16:25:00,
2013-05-27 09:30:00,54.8,53.5,29.76,SW,225,0.0,2.3,94,0.00,,,0.02,Rainwise IP-100,2013-05-27 16:30:00,
2013-05-27 09:35:00,54.8,53.5,29.76,SW,225,0.0,0.0,94,0.00,,,0.02,Rainwise IP-100,2013-05-27 16:35:00,
2013-05-27 09:40:00,54.9,53.5,29.75,SW,225,0.0,0.0,94,0.00,,,0.02,Rainwise IP-100,2013-05-27 16:40:00,
2013-05-27 09:45:00,55.0,53.5,29.76,SW,225,0.0,0.0,94,0.00,,,0.02,Rainwise IP-100,2013-05-27 16:45:00,
2013-05-27 09:50:00,55.2,53.5,29.75,SW,225,0.0,0.0,94,0.00,,,0.02,Rainwise IP-100,2013-05-27 16:50:00,
2013-05-27 09:55:00,55.3,54.0,29.76,SW,225,0.0,0.0,95,0.00,,,0.02,Rainwise IP-100,2013-05-27 16:55:00,
2013-05-27 10:00:00,55.3,54.0,29.76,SW,225,0.0,0.0,95,0.00,,,0.02,Rainwise IP-100,2013-05-27 17:00:00,
2013-05-27 10:05:00,55.2,54.0,29.75,SW,225,0.0,1.2,95,0.06,,,0.03,Rainwise IP-100,2013-05-27 17:05:00,
2013-05-27 10:10:00,55.3,53.5,29.75,SW,225,0.0,0.0,94,0.06,,,0.03,Rainwise IP-100,2013-05-27 17:10:00,
2013-05-27 10:15:00,55.3,53.5,29.75,SW,225,0.0,1.2,94,0.00,,,0.03,Rainwise IP-100,2013-05-27 17:15:00,
2013-05-27 10:20:00,55.3,53.5,29.75,SW,225,0.0,1.6,94,0.00,,,0.03,Rainwise IP-100,2013-05-27 17:20:00,
2013-05-27 10:25:00,55.4,53.5,29.75,SW,225,0.0,0.0,94,0.00,,,0.03,Rainwise IP-100,2013-05-27 17:25:00,
2013-05-27 10:30:00,55.5,54.5,29.75,SSW,202,1.2,1.6,95,0.06,,,0.04,Rainwise IP-100,2013-05-27 17:30:00,
2013-05-27 10:35:00,55.6,54.5,29.75,SSW,202,0.0,2.6,95,0.06,,,0.04,Rainwise IP-100,2013-05-27 17:35:00,
2013-05-27 10:40:00,55.9,54.5,29.74,SSW,202,0.0,1.9,95,0.00,,,0.04,Rainwise IP-100,2013-05-27 17:40:00,
2013-05-27 10:45:00,56.1,54.5,29.74,SSW,202,0.0,1.9,95,0.00,,,0.04,Rainwise IP-100,2013-05-27 17:45:00,
2013-05-27 10:50:00,56.3,54.5,29.74,WSW,247,0.0,3.0,94,0.00,,,0.04,Rainwise IP-100,2013-05-27 17:50:00,
2013-05-27 10:55:00,56.5,54.5,29.74,SSW,202,0.0,1.9,93,0.00,,,0.04,Rainwise IP-100,2013-05-27 17:55:00,
2013-05-27 11:00:00,56.6,54.0,29.73,SSW,202,2.1,2.1,92,0.00,,,0.04,Rainwise IP-100,2013-05-27 18:00:00,
2013-05-27 11:05:00,56.7,54.0,29.73,SSW,202,1.2,4.2,91,0.00,,,0.04,Rainwise IP-100,2013-05-27 18:05:00,
2013-05-27 11:10:00,56.8,54.5,29.73,SSW,202,0.0,3.3,91,0.00,,,0.04,Rainwise IP-100,2013-05-27 18:10:00,
2013-05-27 11:15:00,57.0,54.5,29.73,SSW,202,1.2,1.2,91,0.00,,,0.04,Rainwise IP-100,2013-05-27 18:15:00,
2013-05-27 11:20:00,57.1,54.5,29.73,SSW,202,0.0,1.4,92,0.00,,,0.04,Rainwise IP-100,2013-05-27 18:20:00,
2013-05-27 11:25:00,57.2,54.5,29.73,SW,225,0.0,3.0,91,0.00,,,0.04,Rainwise IP-100,2013-05-27 18:25:00,
2013-05-27 11:30:00,57.3,54.5,29.73,SW,225,0.0,2.1,90,0.00,,,0.04,Rainwise IP-100,2013-05-27 18:30:00,
2013-05-27 11:35:00,57.3,54.5,29.73,SSW,202,0.0,2.6,90,0.00,,,0.04,Rainwise IP-100,2013-05-27 18:35:00,
2013-05-27 11:40:00,57.6,55.0,29.72,SSW,202,0.0,0.0,91,0.00,,,0.04,Rainwise IP-100,2013-05-27 18:40:00,
2013-05-27 11:45:00,57.8,56.0,29.72,WSW,247,0.0,2.1,91,0.00,,,0.04,Rainwise IP-100,2013-05-27 18:45:00,
2013-05-27 11:50:00,58.0,56.0,29.73,WSW,247,0.0,0.0,91,0.00,,,0.04,Rainwise IP-100,2013-05-27 18:50:00,
2013-05-27 11:55:00,58.1,55.0,29.73,WSW,247,0.0,2.1,90,0.00,,,0.04,Rainwise IP-100,2013-05-27 18:55:00,
2013-05-27 12:00:00,58.1,55.0,29.73,SW,225,0.0,2.1,90,0.00,,,0.04,Rainwise IP-100,2013-05-27 19:00:00,
2013-05-27 12:05:00,58.2,55.0,29.73,SW,225,0.0,1.9,90,0.00,,,0.04,Rainwise IP-100,2013-05-27 19:05:00,
2013-05-27 12:10:00,58.2,55.0,29.72,WNW,292,0.0,3.0,90,0.00,,,0.04,Rainwise IP-100,2013-05-27 19:10:00,
2013-05-27 12:15:00,58.2,55.0,29.72,WNW,292,0.0,0.0,90,0.00,,,0.04,Rainwise IP-100,2013-05-27 19:15:00,
2013-05-27 12:20:00,58.3,56.0,29.72,WNW,292,0.0,0.0,91,0.00,,,0.04,Rainwise IP-100,2013-05-27 19:20:00,
2013-05-27 12:25:00,58.4,56.0,29.72,SSW,202,0.0,2.6,91,0.06,,,0.05,Rainwise IP-100,2013-05-27 19:25:00,
2013-05-27 12:30:00,58.5,56.5,29.72,SSW,202,0.0,0.0,91,0.06,,,0.05,Rainwise IP-100,2013-05-27 19:30:00,
2013-05-27 12:35:00,58.6,56.0,29.72,SSW,202,0.0,2.6,90,0.00,,,0.05,Rainwise IP-100,2013-05-27 19:35:00,
2013-05-27 12:40:00,58.5,56.0,29.72,SSW,202,0.0,3.5,90,0.06,,,0.06,Rainwise IP-100,2013-05-27 19:40:00,
2013-05-27 12:45:00,58.5,56.0,29.72,SSW,202,0.0,1.4,90,0.06,,,0.06,Rainwise IP-100,2013-05-27 19:45:00,
2013-05-27 12:46:00,58.5,56.5,29.72,SSW,202,2.8,0.0,91,0.06,,,0.06,Rainwise IP-100,2013-05-27 19:46:00,
2013-05-27 12:51:00,58.5,56.5,29.72,SW,225,0.0,2.8,91,0.00,,,0.06,Rainwise IP-100,2013-05-27 19:51:00,
2013-05-27 12:56:00,58.5,56.5,29.72,SW,225,0.0,2.3,91,0.00,,,0.06,Rainwise IP-100,2013-05-27 19:56:00,
2013-05-27 13:01:00,58.6,56.5,29.72,SW,225,0.0,0.0,91,0.00,,,0.06,Rainwise IP-100,2013-05-27 20:01:00,
2013-05-27 13:06:00,58.6,56.5,29.72,SW,225,0.0,0.0,92,0.00,,,0.06,Rainwise IP-100,2013-05-27 20:06:00,
2013-05-27 13:11:00,58.7,56.5,29.72,SW,225,0.0,0.0,92,0.00,,,0.06,Rainwise IP-100,2013-05-27 20:11:00,
2013-05-27 13:16:00,58.7,56.5,29.72,SW,225,1.2,1.2,92,0.00,,,0.06,Rainwise IP-100,2013-05-27 20:16:00,
2013-05-27 13:21:00,58.6,56.5,29.72,SW,225,0.0,3.7,91,0.00,,,0.06,Rainwise IP-100,2013-05-27 20:21:00,
2013-05-27 13:26:00,58.3,55.0,29.72,SSW,202,0.0,3.0,90,0.00,,,0.07,Rainwise IP-100,2013-05-27 20:26:00,
2013-05-27 13:31:00,58.1,56.0,29.72,SW,225,1.2,2.3,91,0.06,,,0.07,Rainwise IP-100,2013-05-27 20:31:00,
2013-05-27 13:36:00,58.0,56.0,29.71,SSW,202,0.0,3.3,91,0.12,,,0.08,Rainwise IP-100,2013-05-27 20:36:00,
2013-05-27 13:41:00,57.9,56.0,29.72,SW,225,0.0,1.9,91,0.06,,,0.08,Rainwise IP-100,2013-05-27 20:41:00,
2013-05-27 13:46:00,57.9,56.0,29.72,SSW,202,0.0,3.7,92,0.00,,,0.08,Rainwise IP-100,2013-05-27 20:46:00,
2013-05-27 13:51:00,57.9,56.0,29.72,SSW,202,0.0,3.5,92,0.00,,,0.08,Rainwise IP-100,2013-05-27 20:51:00,
2013-05-27 13:56:00,57.8,56.0,29.72,SSW,202,0.0,2.8,92,0.06,,,0.09,Rainwise IP-100,2013-05-27 20:56:00,
2013-05-27 14:01:00,57.8,56.5,29.72,SSW,202,0.0,0.0,93,0.06,,,0.09,Rainwise IP-100,2013-05-27 21:01:00,
2013-05-27 14:06:00,57.9,56.5,29.72,SSW,202,1.2,2.1,93,0.00,,,0.09,Rainwise IP-100,2013-05-27 21:06:00,
2013-05-27 14:11:00,57.9,56.5,29.72,SSW,202,0.0,1.4,93,0.06,,,0.10,Rainwise IP-100,2013-05-27 21:11:00,
2013-05-27 14:16:00,58.0,56.5,29.72,SSW,202,0.0,1.4,93,0.06,,,0.10,Rainwise IP-100,2013-05-27 21:16:00,
2013-05-27 14:21:00,58.0,56.5,29.72,SSW,202,0.0,0.0,94,0.00,,,0.10,Rainwise IP-100,2013-05-27 21:21:00,
2013-05-27 14:26:00,57.9,56.5,29.72,SSW,202,0.0,1.9,94,0.00,,,0.10,Rainwise IP-100,2013-05-27 21:26:00,
2013-05-27 14:31:00,57.9,56.5,29.72,SSW,202,0.0,3.5,94,0.00,,,0.10,Rainwise IP-100,2013-05-27 21:31:00,
2013-05-27 14:36:00,57.8,56.5,29.72,SSW,202,0.0,2.1,94,0.00,,,0.10,Rainwise IP-100,2013-05-27 21:36:00,
2013-05-27 14:41:00,57.8,56.5,29.72,SSW,202,0.0,1.6,94,0.00,,,0.10,Rainwise IP-100,2013-05-27 21:41:00,
2013-05-27 14:46:00,57.9,56.5,29.72,SSW,202,0.0,0.0,94,0.00,,,0.10,Rainwise IP-100,2013-05-27 21:46:00,
2013-05-27 14:51:00,58.1,56.5,29.72,SSW,202,0.0,2.3,94,0.00,,,0.10,Rainwise IP-100,2013-05-27 21:51:00,
2013-05-27 14:56:00,58.1,56.5,29.72,SW,225,0.0,3.7,93,0.00,,,0.10,Rainwise IP-100,2013-05-27 21:56:00,
2013-05-27 15:01:00,58.0,56.0,29.72,SW,225,0.0,3.7,92,0.00,,,0.10,Rainwise IP-100,2013-05-27 22:01:00,
2013-05-27 15:06:00,58.0,56.0,29.72,SW,225,0.0,2.3,91,0.00,,,0.10,Rainwise IP-100,2013-05-27 22:06:00,
2013-05-27 15:11:00,58.0,56.0,29.72,SW,225,0.0,3.3,91,0.00,,,0.11,Rainwise IP-100,2013-05-27 22:11:00,
2013-05-27 15:16:00,58.0,56.0,29.72,SW,225,0.0,1.2,91,0.06,,,0.11,Rainwise IP-100,2013-05-27 22:16:00,
2013-05-27 15:21:00,57.8,56.0,29.73,WSW,247,0.0,1.9,92,0.06,,,0.11,Rainwise IP-100,2013-05-27 22:21:00,
2013-05-27 15:26:00,57.6,55.0,29.73,SW,225,0.0,1.6,92,0.00,,,0.11,Rainwise IP-100,2013-05-27 22:26:00,
2013-05-27 15:31:00,57.5,55.0,29.73,SW,225,0.0,0.0,92,0.00,,,0.11,Rainwise IP-100,2013-05-27 22:31:00,
2013-05-27 15:36:00,57.4,56.0,29.73,SW,225,0.0,0.0,93,0.06,,,0.12,Rainwise IP-100,2013-05-27 22:36:00,
2013-05-27 15:41:00,57.4,56.0,29.72,SW,225,0.0,0.0,94,0.06,,,0.12,Rainwise IP-100,2013-05-27 22:41:00,
2013-05-27 15:46:00,57.4,56.0,29.73,SW,225,0.0,0.0,94,0.00,,,0.12,Rainwise IP-100,2013-05-27 22:46:00,
2013-05-27 15:51:00,57.4,56.0,29.73,SW,225,0.0,0.0,94,0.00,,,0.12,Rainwise IP-100,2013-05-27 22:51:00,
2013-05-27 15:56:00,57.3,56.0,29.73,SW,225,0.0,0.0,94,0.00,,,0.12,Rainwise IP-100,2013-05-27 22:56:00,
2013-05-27 16:01:00,57.3,56.5,29.72,SW,225,0.0,0.0,95,0.00,,,0.12,Rainwise IP-100,2013-05-27 23:01:00,
2013-05-27 16:06:00,57.3,56.5,29.72,SW,225,0.0,0.0,95,0.00,,,0.12,Rainwise IP-100,2013-05-27 23:06:00,
2013-05-27 16:11:00,57.5,56.5,29.72,SW,225,0.0,0.0,96,0.00,,,0.12,Rainwise IP-100,2013-05-27 23:11:00,
2013-05-27 16:16:00,57.7,56.5,29.72,SW,225,0.0,0.0,96,0.00,,,0.12,Rainwise IP-100,2013-05-27 23:16:00,
2013-05-27 16:21:00,57.9,57.0,29.72,SW,225,0.0,1.6,95,0.00,,,0.12,Rainwise IP-100,2013-05-27 23:21:00,
2013-05-27 16:26:00,58.0,57.0,29.72,SW,225,0.0,0.0,95,0.00,,,0.12,Rainwise IP-100,2013-05-27 23:26:00,
2013-05-27 16:31:00,58.1,57.0,29.72,SW,225,0.0,2.1,95,0.00,,,0.12,Rainwise IP-100,2013-05-27 23:31:00,
2013-05-27 16:36:00,58.1,56.5,29.72,SW,225,0.0,1.2,94,0.00,,,0.12,Rainwise IP-100,2013-05-27 23:36:00,
2013-05-27 16:41:00,58.0,56.5,29.72,SW,225,0.0,0.0,93,0.00,,,0.12,Rainwise IP-100,2013-05-27 23:41:00,
2013-05-27 16:46:00,57.9,56.5,29.72,SW,225,0.0,1.2,93,0.00,,,0.12,Rainwise IP-100,2013-05-27 23:46:00,
2013-05-27 16:51:00,57.9,56.5,29.72,SW,225,0.0,1.2,93,0.00,,,0.12,Rainwise IP-100,2013-05-27 23:51:00,
2013-05-27 16:56:00,57.8,56.5,29.72,SW,225,0.0,0.0,93,0.00,,,0.12,Rainwise IP-100,2013-05-27 23:56:00,
2013-05-27 17:01:00,57.8,56.5,29.72,SW,225,0.0,0.0,93,0.00,,,0.12,Rainwise IP-100,2013-05-28 00:01:00,
2013-05-27 17:03:00,57.9,56.5,29.72,SW,225,0.0,0.0,94,0.00,,,0.12,Rainwise IP-100,2013-05-28 00:03:00,
2013-05-27 17:08:00,58.0,56.5,29.72,SW,225,0.0,1.2,94,0.00,,,0.12,Rainwise IP-100,2013-05-28 00:08:00,
2013-05-27 17:13:00,58.1,56.5,29.72,SW,225,0.0,1.2,94,0.00,,,0.12,Rainwise IP-100,2013-05-28 00:13:00,
2013-05-27 17:18:00,58.2,56.5,29.72,SW,225,0.0,0.0,93,0.00,,,0.12,Rainwise IP-100,2013-05-28 00:18:00,
2013-05-27 17:23:00,58.2,56.5,29.72,SW,225,0.0,0.0,93,0.00,,,0.12,Rainwise IP-100,2013-05-28 00:23:00,
2013-05-27 17:28:00,58.2,56.5,29.72,SW,225,0.0,0.0,93,0.24,,,0.16,Rainwise IP-100,2013-05-28 00:28:00,
2013-05-27 17:33:00,58.0,56.5,29.72,SW,225,0.0,1.2,93,0.48,,,0.21,Rainwise IP-100,2013-05-28 00:33:00,
2013-05-27 17:38:00,57.8,56.5,29.72,SW,225,0.0,1.4,94,0.48,,,0.24,Rainwise IP-100,2013-05-28 00:38:00,
2013-05-27 17:43:00,57.6,56.5,29.72,SW,225,0.0,1.9,95,0.30,,,0.25,Rainwise IP-100,2013-05-28 00:43:00,
2013-05-27 17:48:00,57.5,56.5,29.72,SW,225,0.0,1.2,96,0.06,,,0.25,Rainwise IP-100,2013-05-28 00:48:00,
2013-05-27 17:53:00,57.7,57.0,29.72,SW,225,0.0,1.2,97,0.00,,,0.25,Rainwise IP-100,2013-05-28 00:53:00,
2013-05-27 17:58:00,57.8,57.5,29.72,SW,225,0.0,1.4,97,0.06,,,0.26,Rainwise IP-100,2013-05-28 00:58:00,
2013-05-27 18:03:00,57.8,57.5,29.72,SW,225,0.0,0.0,98,0.06,,,0.26,Rainwise IP-100,2013-05-28 01:03:00,
2013-05-27 18:08:00,57.7,57.0,29.72,SW,225,0.0,1.4,97,0.00,,,0.26,Rainwise IP-100,2013-05-28 01:08:00,
2013-05-27 18:13:00,57.7,57.0,29.72,SW,225,0.0,2.1,97,0.00,,,0.26,Rainwise IP-100,2013-05-28 01:13:00,
2013-05-27 18:18:00,57.6,57.0,29.72,WSW,247,0.0,1.6,97,0.00,,,0.27,Rainwise IP-100,2013-05-28 01:18:00,
2013-05-27 18:23:00,57.5,57.0,29.72,WSW,247,0.0,0.0,97,0.06,,,0.27,Rainwise IP-100,2013-05-28 01:23:00,
2013-05-27 18:28:00,57.4,56.5,29.72,SSW,202,0.0,2.8,96,0.12,,,0.28,Rainwise IP-100,2013-05-28 01:28:00,
2013-05-27 18:33:00,57.4,56.5,29.72,SSW,202,0.0,1.4,96,0.06,,,0.28,Rainwise IP-100,2013-05-28 01:33:00,
2013-05-27 18:38:00,57.5,57.0,29.72,SW,225,1.4,2.3,97,0.00,,,0.28,Rainwise IP-100,2013-05-28 01:38:00,
2013-05-27 18:43:00,57.6,57.0,29.72,SW,225,0.0,2.1,97,0.00,,,0.28,Rainwise IP-100,2013-05-28 01:43:00,
2013-05-27 18:48:00,57.7,56.5,29.72,WSW,247,0.0,2.1,96,0.00,,,0.28,Rainwise IP-100,2013-05-28 01:48:00,
2013-05-27 18:53:00,57.7,56.5,29.72,WSW,247,0.0,1.2,96,0.00,,,0.28,Rainwise IP-100,2013-05-28 01:53:00,
2013-05-27 18:58:00,57.7,56.5,29.72,WSW,247,0.0,0.0,96,0.00,,,0.28,Rainwise IP-100,2013-05-28 01:58:00,
2013-05-27 19:03:00,57.7,57.0,29.72,WSW,247,0.0,0.0,97,0.00,,,0.28,Rainwise IP-100,2013-05-28 02:03:00,
2013-05-27 19:08:00,57.7,57.0,29.72,SW,225,0.0,0.0,97,0.00,,,0.28,Rainwise IP-100,2013-05-28 02:08:00,
2013-05-27 19:13:00,57.6,57.0,29.73,SSW,202,0.0,1.9,97,0.00,,,0.28,Rainwise IP-100,2013-05-28 02:13:00,
2013-05-27 19:18:00,57.6,56.5,29.73,SW,225,0.0,3.3,96,0.00,,,0.28,Rainwise IP-100,2013-05-28 02:18:00,
2013-05-27 19:23:00,57.5,56.5,29.73,SW,225,0.0,1.9,96,0.00,,,0.28,Rainwise IP-100,2013-05-28 02:23:00,
2013-05-27 19:28:00,57.5,56.5,29.73,SW,225,0.0,2.3,96,0.00,,,0.28,Rainwise IP-100,2013-05-28 02:28:00,
2013-05-27 19:33:00,57.4,56.5,29.73,SSW,202,3.0,3.0,96,0.00,,,0.28,Rainwise IP-100,2013-05-28 02:33:00,
2013-05-27 19:38:00,57.4,56.5,29.74,SW,225,1.2,4.4,95,0.00,,,0.28,Rainwise IP-100,2013-05-28 02:38:00,
2013-05-27 19:43:00,57.3,56.0,29.73,SW,225,0.0,2.6,94,0.00,,,0.28,Rainwise IP-100,2013-05-28 02:43:00,
2013-05-27 19:48:00,57.2,55.0,29.74,SSW,202,1.2,2.6,94,0.00,,,0.28,Rainwise IP-100,2013-05-28 02:48:00,
2013-05-27 19:53:00,57.1,56.0,29.74,SW,225,0.0,2.3,95,0.00,,,0.28,Rainwise IP-100,2013-05-28 02:53:00,
2013-05-27 19:58:00,56.9,56.0,29.74,SW,225,2.1,2.8,95,0.00,,,0.28,Rainwise IP-100,2013-05-28 02:58:00,
2013-05-27 20:03:00,56.9,55.0,29.74,SW,225,1.9,3.7,94,0.00,,,0.28,Rainwise IP-100,2013-05-28 03:03:00,
2013-05-27 20:08:00,56.9,55.0,29.74,SW,225,1.4,4.0,94,0.00,,,0.28,Rainwise IP-100,2013-05-28 03:08:00,
2013-05-27 20:13:00,56.8,55.0,29.74,SSW,202,0.0,2.8,93,0.00,,,0.28,Rainwise IP-100,2013-05-28 03:13:00,
2013-05-27 20:18:00,56.7,54.5,29.74,SSW,202,0.0,5.4,93,0.00,,,0.28,Rainwise IP-100,2013-05-28 03:18:00,
2013-05-27 20:23:00,56.5,54.0,29.74,South,180,0.0,3.0,92,0.00,,,0.28,Rainwise IP-100,2013-05-28 03:23:00,
2013-05-27 20:28:00,56.3,54.0,29.74,SSW,202,0.0,3.0,92,0.00,,,0.28,Rainwise IP-100,2013-05-28 03:28:00,
2013-05-27 20:33:00,56.2,53.5,29.74,SSW,202,0.0,1.9,92,0.00,,,0.28,Rainwise IP-100,2013-05-28 03:33:00,
2013-05-27 20:38:00,56.1,54.0,29.74,SW,225,0.0,4.2,93,0.00,,,0.28,Rainwise IP-100,2013-05-28 03:38:00,
2013-05-27 20:43:00,55.9,53.5,29.74,SW,225,0.0,2.6,92,0.00,,,0.28,Rainwise IP-100,2013-05-28 03:43:00,
2013-05-27 20:48:00,55.9,53.5,29.74,SSW,202,0.0,3.0,92,0.00,,,0.28,Rainwise IP-100,2013-05-28 03:48:00,
2013-05-27 20:53:00,55.9,53.5,29.75,SW,225,0.0,2.8,92,0.00,,,0.28,Rainwise IP-100,2013-05-28 03:53:00,
2013-05-27 20:58:00,55.9,53.5,29.75,South,180,0.0,2.8,92,0.00,,,0.28,Rainwise IP-100,2013-05-28 03:58:00,
2013-05-27 21:01:00,55.9,53.5,29.75,South,180,1.2,2.8,92,0.00,,,0.28,Rainwise IP-100,2013-05-28 04:01:00,
2013-05-27 21:06:00,55.8,54.0,29.75,SSW,202,1.2,3.0,93,0.00,,,0.28,Rainwise IP-100,2013-05-28 04:06:00,
2013-05-27 21:11:00,55.6,54.0,29.75,WSW,247,0.0,1.4,93,0.00,,,0.28,Rainwise IP-100,2013-05-28 04:11:00,
2013-05-27 21:16:00,55.6,53.5,29.75,SW,225,0.0,3.5,92,0.00,,,0.28,Rainwise IP-100,2013-05-28 04:16:00,
2013-05-27 21:21:00,55.6,53.5,29.75,SSW,202,0.0,2.6,92,0.00,,,0.28,Rainwise IP-100,2013-05-28 04:21:00,
2013-05-27 21:26:00,55.5,53.5,29.75,SSW,202,1.4,3.7,92,0.00,,,0.28,Rainwise IP-100,2013-05-28 04:26:00,
2013-05-27 21:31:00,55.6,53.5,29.76,SSW,202,1.6,2.8,92,0.00,,,0.28,Rainwise IP-100,2013-05-28 04:31:00,
2013-05-27 21:36:00,55.6,53.5,29.76,WSW,247,1.4,4.2,92,0.00,,,0.28,Rainwise IP-100,2013-05-28 04:36:00,
2013-05-27 21:41:00,55.5,53.5,29.76,SSW,202,1.2,3.0,92,0.00,,,0.28,Rainwise IP-100,2013-05-28 04:41:00,
2013-05-27 21:46:00,55.4,53.0,29.76,SW,225,0.0,2.6,92,0.00,,,0.28,Rainwise IP-100,2013-05-28 04:46:00,
2013-05-27 21:51:00,55.4,53.0,29.76,SSW,202,1.2,2.6,92,0.00,,,0.28,Rainwise IP-100,2013-05-28 04:51:00,
2013-05-27 21:56:00,55.4,53.0,29.77,WSW,247,0.0,3.0,92,0.00,,,0.28,Rainwise IP-100,2013-05-28 04:56:00,
2013-05-27 22:01:00,55.4,53.0,29.77,SSW,202,3.5,3.5,92,0.00,,,0.28,Rainwise IP-100,2013-05-28 05:01:00,
2013-05-27 22:06:00,55.5,53.5,29.77,SW,225,0.0,4.0,91,0.00,,,0.28,Rainwise IP-100,2013-05-28 05:06:00,
2013-05-27 22:11:00,55.6,53.5,29.77,SSW,202,0.0,4.0,91,0.00,,,0.28,Rainwise IP-100,2013-05-28 05:11:00,
2013-05-27 22:16:00,55.6,53.5,29.77,SW,225,1.2,4.0,90,0.00,,,0.28,Rainwise IP-100,2013-05-28 05:16:00,
2013-05-27 22:21:00,55.5,53.5,29.77,SSW,202,2.3,2.6,90,0.00,,,0.28,Rainwise IP-100,2013-05-28 05:21:00,
2013-05-27 22:26:00,55.5,53.5,29.77,SSW,202,2.6,3.3,91,0.00,,,0.28,Rainwise IP-100,2013-05-28 05:26:00,
2013-05-27 22:31:00,55.5,53.5,29.77,SW,225,1.2,4.0,91,0.00,,,0.28,Rainwise IP-100,2013-05-28 05:31:00,
2013-05-27 22:36:00,55.4,53.0,29.77,SW,225,0.0,2.1,91,0.00,,,0.28,Rainwise IP-100,2013-05-28 05:36:00,
2013-05-27 22:41:00,55.4,53.0,29.77,SW,225,1.2,1.9,91,0.00,,,0.28,Rainwise IP-100,2013-05-28 05:41:00,
2013-05-27 22:46:00,55.4,53.0,29.77,South,180,1.6,5.4,91,0.00,,,0.28,Rainwise IP-100,2013-05-28 05:46:00,
2013-05-27 22:51:00,55.4,53.0,29.77,SW,225,1.6,3.0,91,0.00,,,0.28,Rainwise IP-100,2013-05-28 05:51:00,
2013-05-27 22:56:00,55.3,53.0,29.77,SSW,202,2.3,5.1,91,0.00,,,0.28,Rainwise IP-100,2013-05-28 05:56:00,
2013-05-27 23:01:00,55.3,53.0,29.77,SW,225,1.2,4.2,91,0.00,,,0.28,Rainwise IP-100,2013-05-28 06:01:00,
2013-05-27 23:06:00,55.3,53.0,29.77,South,180,1.4,2.8,91,0.00,,,0.28,Rainwise IP-100,2013-05-28 06:06:00,
2013-05-27 23:11:00,55.2,53.0,29.77,SW,225,0.0,3.5,91,0.00,,,0.28,Rainwise IP-100,2013-05-28 06:11:00,
2013-05-27 23:16:00,55.3,53.0,29.78,WSW,247,0.0,7.7,90,0.00,,,0.28,Rainwise IP-100,2013-05-28 06:16:00,
2013-05-27 23:21:00,55.3,53.0,29.77,SW,225,1.6,4.9,90,0.00,,,0.28,Rainwise IP-100,2013-05-28 06:21:00,
2013-05-27 23:26:00,55.3,52.0,29.77,WSW,247,2.1,5.1,89,0.00,,,0.28,Rainwise IP-100,2013-05-28 06:26:00,
2013-05-27 23:31:00,55.2,53.0,29.78,SSW,202,2.3,4.9,90,0.00,,,0.28,Rainwise IP-100,2013-05-28 06:31:00,
2013-05-27 23:36:00,55.1,53.0,29.78,SW,225,1.6,4.0,90,0.00,,,0.28,Rainwise IP-100,2013-05-28 06:36:00,
2013-05-27 23:41:00,55.0,53.0,29.78,SSW,202,2.1,3.5,90,0.00,,,0.28,Rainwise IP-100,2013-05-28 06:41:00,
2013-05-27 23:46:00,54.9,53.0,29.78,WSW,247,2.6,4.7,90,0.00,,,0.28,Rainwise IP-100,2013-05-28 06:46:00,
2013-05-27 23:51:00,54.8,53.0,29.78,SSW,202,1.4,4.2,90,0.00,,,0.28,Rainwise IP-100,2013-05-28 06:51:00,
2013-05-27 23:56:00,54.6,52.0,29.78,SW,225,1.2,3.5,91,0.00,,,0.28,Rainwise IP-100,2013-05-28 06:56:00,